Time,TemperatureF,DewpointF,PressureIn,WindDirection,WindDirectionDegrees,WindSpeedMPH,WindSpeedGustMPH,Humidity,HourlyPrecipIn,Conditions,Clouds,dailyrainin,SoftwareType,DateUTC
2013-01-13 00:03:00,3.1,-3.3,30.13,NW,313,1.1,1.1,74,0.00,CLR,,0.00,WeatherDisplay:10.37,2013-01-13 06:03:00,
2013-01-13 00:08:00,3.1,-3.3,30.13,WNW,297,1.1,1.1,74,0.00,CLR,,0.00,WeatherDisplay:10.37,2013-01-13 06:08:00,
2013-01-13 00:13:00,3.0,-3.4,30.13,West,279,4.6,4.6,74,0.00,CLR,,0.00,WeatherDisplay:10.37,2013-01-13 06:13:00,
2013-01-13 00:18:00,2.9,-3.5,30.13,WNW,293,0.0,0.0,74,0.00,CLR,,0.00,WeatherDisplay:10.37,2013-01-13 06:18:00,
2013-01-13 00:23:00,2.8,-3.6,30.14,WNW,284,5.8,5.8,74,0.00,CLR,,0.00,WeatherDisplay:10.37,2013-01-13 06:23:00,
2013-01-13 00:28:00,2.8,-3.6,30.14,WNW,284,3.5,0.0,74,0.00,CLR,,0.00,WeatherDisplay:10.37,2013-01-13 06:28:00,
2013-01-13 00:33:00,2.8,-3.6,30.14,NW,306,3.5,3.5,74,0.00,CLR,,0.00,WeatherDisplay:10.37,2013-01-13 06:33:00,
2013-01-13 00:38:00,2.8,-3.6,30.13,WNW,298,0.0,0.0,74,0.00,CLR,,0.00,WeatherDisplay:10.37,2013-01-13 06:38:00,
2013-01-13 00:43:00,2.8,-3.6,30.13,WNW,283,1.1,1.1,74,0.00,CLR,,0.00,WeatherDisplay:10.37,2013-01-13 06:43:00,
2013-01-13 00:48:00,2.7,-3.7,30.12,NW,322,3.5,3.5,74,0.00,CLR,,0.00,WeatherDisplay:10.37,2013-01-13 06:48:00,
2013-01-13 00:53:00,2.6,-3.8,30.12,NNW,327,2.3,2.3,74,0.00,CLR,,0.00,WeatherDisplay:10.37,2013-01-13 06:53:00,
2013-01-13 00:58:00,2.6,-3.8,30.12,West,279,2.3,2.3,74,0.00,CLR,,0.00,WeatherDisplay:10.37,2013-01-13 06:58:00,
2013-01-13 01:03:00,2.5,-3.9,30.12,WNW,290,3.5,3.5,74,0.00,CLR,,0.00,WeatherDisplay:10.37,2013-01-13 07:03:00,
2013-01-13 01:08:00,2.4,-4.0,30.12,WNW,302,1.1,1.1,74,0.00,CLR,,0.00,WeatherDisplay:10.37,2013-01-13 07:08:00,
2013-01-13 01:14:00,2.4,-4.0,30.12,NW,315,0.0,0.3,74,0.00,CLR,,0.00,WeatherDisplay:10.37,2013-01-13 07:14:00,
2013-01-13 01:19:00,2.4,-4.0,30.13,WNW,302,3.5,3.5,74,0.00,CLR,,0.00,WeatherDisplay:10.37,2013-01-13 07:19:00,
2013-01-13 01:24:00,2.4,-4.0,30.13,NW,313,3.5,3.5,74,0.00,CLR,,0.00,WeatherDisplay:10.37,2013-01-13 07:24:00,
2013-01-13 01:29:00,2.4,-3.7,30.13,NW,311,1.1,1.1,75,0.00,CLR,,0.00,WeatherDisplay:10.37,2013-01-13 07:29:00,
2013-01-13 01:34:00,2.3,-4.1,30.13,NW,307,1.1,0.0,74,0.00,CLR,,0.00,WeatherDisplay:10.37,2013-01-13 07:34:00,
2013-01-13 01:39:00,2.3,-3.8,30.14,NW,307,2.3,2.3,75,0.00,CLR,,0.00,WeatherDisplay:10.37,2013-01-13 07:39:00,
2013-01-13 01:44:00,2.2,-4.2,30.14,NW,311,3.5,3.5,74,0.00,CLR,,0.00,WeatherDisplay:10.37,2013-01-13 07:44:00,
2013-01-13 01:49:00,2.2,-4.2,30.13,NW,313,4.6,4.6,74,0.00,CLR,,0.00,WeatherDisplay:10.37,2013-01-13 07:49:00,
2013-01-13 01:54:00,2.1,-4.3,30.13,NW,326,3.5,3.5,74,0.00,CLR,,0.00,WeatherDisplay:10.37,2013-01-13 07:54:00,
2013-01-13 01:59:00,2.1,-4.0,30.13,WNW,303,0.0,0.0,75,0.00,CLR,,0.00,WeatherDisplay:10.37,2013-01-13 07:59:00,
2013-01-13 02:04:00,2.0,-4.1,30.13,NW,315,0.0,0.4,75,0.00,CLR,,0.00,WeatherDisplay:10.37,2013-01-13 08:04:00,
2013-01-13 02:09:00,2.0,-4.1,30.13,WNW,299,3.5,3.5,75,0.00,CLR,,0.00,WeatherDisplay:10.37,2013-01-13 08:09:00,
2013-01-13 02:14:00,2.0,-4.1,30.13,NW,306,1.1,0.0,75,0.00,CLR,,0.00,WeatherDisplay:10.37,2013-01-13 08:14:00,
2013-01-13 02:19:00,1.9,-4.2,30.13,NW,304,0.0,0.1,75,0.00,CLR,,0.00,WeatherDisplay:10.37,2013-01-13 08:19:00,
2013-01-13 02:24:00,1.9,-4.2,30.13,NW,306,0.0,0.0,75,0.00,CLR,,0.00,WeatherDisplay:10.37,2013-01-13 08:24:00,
2013-01-13 02:29:00,1.8,-4.3,30.13,NW,306,0.0,0.0,75,0.00,CLR,,0.00,WeatherDisplay:10.37,2013-01-13 08:29:00,
2013-01-13 02:34:00,1.8,-4.3,30.13,NW,307,0.0,0.0,75,0.00,CLR,,0.00,WeatherDisplay:10.37,2013-01-13 08:34:00,
2013-01-13 02:39:00,1.7,-4.4,30.13,NW,307,3.5,3.5,75,0.00,CLR,,0.00,WeatherDisplay:10.37,2013-01-13 08:39:00,
2013-01-13 02:44:00,1.7,-4.1,30.14,NW,307,0.0,0.0,76,0.00,CLR,,0.00,WeatherDisplay:10.37,2013-01-13 08:44:00,
2013-01-13 02:49:00,1.7,-4.1,30.14,NW,306,0.0,0.0,76,0.00,CLR,,0.00,WeatherDisplay:10.37,2013-01-13 08:49:00,
2013-01-13 02:54:00,1.7,-4.1,30.14,NW,306,0.0,0.0,76,0.00,CLR,,0.00,WeatherDisplay:10.37,2013-01-13 08:54:00,
2013-01-13 02:59:00,1.7,-4.1,30.13,NW,306,0.0,0.0,76,0.00,CLR,,0.00,WeatherDisplay:10.37,2013-01-13 08:59:00,
2013-01-13 03:04:00,1.7,-4.1,30.14,NW,306,0.0,0.0,76,0.00,CLR,,0.00,WeatherDisplay:10.37,2013-01-13 09:04:00,
2013-01-13 03:09:00,1.6,-4.2,30.13,WNW,298,0.0,0.0,76,0.00,CLR,,0.00,WeatherDisplay:10.37,2013-01-13 09:09:00,
2013-01-13 03:14:00,1.6,-4.2,30.14,WNW,299,0.0,0.0,76,0.00,CLR,,0.00,WeatherDisplay:10.37,2013-01-13 09:14:00,
2013-01-13 03:19:00,1.5,-4.3,30.14,WNW,299,0.0,0.0,76,0.00,CLR,,0.00,WeatherDisplay:10.37,2013-01-13 09:19:00,
2013-01-13 03:24:00,1.5,-4.3,30.13,WNW,299,0.0,0.0,76,0.00,CLR,,0.00,WeatherDisplay:10.37,2013-01-13 09:24:00,
2013-01-13 03:29:00,1.5,-4.3,30.13,WNW,299,0.0,0.0,76,0.00,CLR,,0.00,WeatherDisplay:10.37,2013-01-13 09:29:00,
2013-01-13 03:34:00,1.5,-4.3,30.13,NW,315,3.5,3.5,76,0.00,CLR,,0.00,WeatherDisplay:10.37,2013-01-13 09:34:00,
2013-01-13 03:39:00,1.5,-4.3,30.13,NW,312,2.3,2.3,76,0.00,CLR,,0.00,WeatherDisplay:10.37,2013-01-13 09:39:00,
2013-01-13 03:44:00,1.4,-4.4,30.13,NW,309,1.1,0.0,76,0.00,CLR,,0.00,WeatherDisplay:10.37,2013-01-13 09:44:00,
2013-01-13 03:49:00,1.4,-4.4,30.13,NW,309,0.0,0.0,76,0.00,CLR,,0.00,WeatherDisplay:10.37,2013-01-13 09:49:00,
2013-01-13 03:54:00,1.4,-4.1,30.14,NW,309,0.0,0.0,77,0.00,CLR,,0.00,WeatherDisplay:10.37,2013-01-13 09:54:00,
2013-01-13 03:59:00,1.4,-4.1,30.14,NW,309,0.0,0.0,77,0.00,CLR,,0.00,WeatherDisplay:10.37,2013-01-13 09:59:00,
2013-01-13 04:04:00,1.4,-4.1,30.14,WNW,294,0.0,0.0,77,0.00,CLR,,0.00,WeatherDisplay:10.37,2013-01-13 10:04:00,
2013-01-13 04:09:00,1.3,-4.2,30.13,WNW,294,0.0,0.0,77,0.00,CLR,,0.00,WeatherDisplay:10.37,2013-01-13 10:09:00,
2013-01-13 04:14:00,1.2,-4.3,30.14,WNW,294,0.0,0.1,77,0.00,CLR,,0.00,WeatherDisplay:10.37,2013-01-13 10:14:00,
2013-01-13 04:19:00,1.1,-4.4,30.14,WNW,294,0.0,0.0,77,0.00,CLR,,0.00,WeatherDisplay:10.37,2013-01-13 10:19:00,
2013-01-13 04:24:00,1.1,-4.4,30.14,WNW,294,0.0,0.0,77,0.00,CLR,,0.00,WeatherDisplay:10.37,2013-01-13 10:24:00,
2013-01-13 04:29:00,1.1,-4.4,30.14,WNW,294,1.1,1.1,77,0.00,CLR,,0.00,WeatherDisplay:10.37,2013-01-13 10:29:00,
2013-01-13 04:34:00,1.0,-4.5,30.14,WNW,295,3.5,3.5,77,0.00,CLR,,0.00,WeatherDisplay:10.37,2013-01-13 10:34:00,
2013-01-13 04:39:00,1.0,-4.5,30.15,WNW,295,0.0,0.0,77,0.00,CLR,,0.00,WeatherDisplay:10.37,2013-01-13 10:39:00,
2013-01-13 04:44:00,1.0,-4.5,30.13,WNW,296,0.0,0.0,77,0.00,CLR,,0.00,WeatherDisplay:10.37,2013-01-13 10:44:00,
2013-01-13 04:49:00,0.9,-4.6,30.13,WNW,302,3.5,3.5,77,0.00,CLR,,0.00,WeatherDisplay:10.37,2013-01-13 10:49:00,
2013-01-13 04:54:00,1.0,-4.5,30.13,WNW,301,2.3,2.3,77,0.00,CLR,,0.00,WeatherDisplay:10.37,2013-01-13 10:54:00,
2013-01-13 04:59:00,0.9,-4.6,30.13,NW,308,2.3,2.3,77,0.00,CLR,,0.00,WeatherDisplay:10.37,2013-01-13 10:59:00,
2013-01-13 05:04:00,0.9,-4.6,30.14,NW,308,0.0,0.0,77,0.00,CLR,,0.00,WeatherDisplay:10.37,2013-01-13 11:04:00,
2013-01-13 05:09:00,0.9,-4.6,30.14,NW,308,3.5,3.5,77,0.00,CLR,,0.00,WeatherDisplay:10.37,2013-01-13 11:09:00,
2013-01-13 05:14:00,1.0,-4.5,30.14,NW,308,3.5,0.0,77,0.00,CLR,,0.00,WeatherDisplay:10.37,2013-01-13 11:14:00,
2013-01-13 05:19:00,1.0,-4.5,30.14,NW,308,2.0,2.0,77,0.00,CLR,,0.00,WeatherDisplay:10.37,2013-01-13 11:19:00,
2013-01-13 05:24:00,0.9,-4.6,30.14,NW,308,2.3,2.3,77,0.00,CLR,,0.00,WeatherDisplay:10.37,2013-01-13 11:24:00,
2013-01-13 05:29:00,1.0,-4.3,30.14,NW,304,3.5,3.5,78,0.00,CLR,,0.00,WeatherDisplay:10.37,2013-01-13 11:29:00,
2013-01-13 05:34:00,1.0,-4.3,30.15,NW,305,1.1,0.0,78,0.00,CLR,,0.00,WeatherDisplay:10.37,2013-01-13 11:34:00,
2013-01-13 05:39:00,1.1,-4.2,30.15,NW,307,2.3,2.3,78,0.00,CLR,,0.00,WeatherDisplay:10.37,2013-01-13 11:39:00,
2013-01-13 05:44:00,1.2,-4.1,30.15,NW,307,4.6,4.6,78,0.00,CLR,,0.00,WeatherDisplay:10.37,2013-01-13 11:44:00,
2013-01-13 05:49:00,1.3,-4.0,30.16,NNW,331,3.5,3.5,78,0.00,CLR,,0.00,WeatherDisplay:10.37,2013-01-13 11:49:00,
2013-01-13 05:54:00,1.3,-4.2,30.16,NW,317,4.6,4.6,77,0.00,CLR,,0.00,WeatherDisplay:10.37,2013-01-13 11:54:00,
2013-01-13 05:59:00,1.3,-4.2,30.16,NW,321,0.0,0.0,77,0.00,CLR,,0.00,WeatherDisplay:10.37,2013-01-13 11:59:00,
2013-01-13 06:04:00,1.3,-4.2,30.16,NW,313,2.3,2.3,77,0.00,CLR,,0.00,WeatherDisplay:10.37,2013-01-13 12:04:00,
2013-01-13 06:09:00,1.3,-4.2,30.16,NNW,329,4.6,4.6,77,0.00,CLR,,0.00,WeatherDisplay:10.37,2013-01-13 12:09:00,
2013-01-13 06:14:00,1.4,-4.1,30.17,NW,326,2.3,2.3,77,0.00,CLR,,0.00,WeatherDisplay:10.37,2013-01-13 12:14:00,
2013-01-13 06:19:00,1.4,-4.1,30.17,NW,325,3.5,3.5,77,0.00,CLR,,0.00,WeatherDisplay:10.37,2013-01-13 12:19:00,
2013-01-13 06:24:00,1.4,-4.1,30.17,NW,312,0.0,0.0,77,0.00,CLR,,0.00,WeatherDisplay:10.37,2013-01-13 12:24:00,
2013-01-13 06:29:00,1.4,-4.1,30.18,NW,320,3.5,3.5,77,0.00,CLR,,0.00,WeatherDisplay:10.37,2013-01-13 12:29:00,
2013-01-13 06:34:00,1.5,-4.0,30.18,NW,319,0.0,0.0,77,0.00,CLR,,0.00,WeatherDisplay:10.37,2013-01-13 12:34:00,
2013-01-13 06:39:00,1.5,-4.0,30.18,NW,313,3.5,3.5,77,0.00,CLR,,0.00,WeatherDisplay:10.37,2013-01-13 12:39:00,
2013-01-13 06:44:00,1.4,-4.1,30.18,NW,313,0.0,0.0,77,0.00,CLR,,0.00,WeatherDisplay:10.37,2013-01-13 12:44:00,
2013-01-13 06:49:00,1.4,-4.1,30.19,NW,313,0.0,0.0,77,0.00,CLR,,0.00,WeatherDisplay:10.37,2013-01-13 12:49:00,
2013-01-13 06:54:00,1.5,-4.0,30.19,NW,313,0.0,0.0,77,0.00,CLR,,0.00,WeatherDisplay:10.37,2013-01-13 12:54:00,
2013-01-13 07:00:00,1.4,-4.1,30.20,NW,313,2.3,0.0,77,0.00,CLR,,0.00,WeatherDisplay:10.37,2013-01-13 13:00:00,
2013-01-13 07:05:00,1.5,-4.0,30.20,WNW,302,3.5,3.5,77,0.00,CLR,,0.00,WeatherDisplay:10.37,2013-01-13 13:05:00,
2013-01-13 07:10:00,1.4,-4.1,30.20,NW,308,3.5,3.5,77,0.00,CLR,,0.00,WeatherDisplay:10.37,2013-01-13 13:10:00,
2013-01-13 07:15:00,1.4,-4.1,30.19,NW,307,0.0,0.0,77,0.00,CLR,,0.00,WeatherDisplay:10.37,2013-01-13 13:15:00,
2013-01-13 07:20:00,1.5,-4.0,30.20,WNW,294,2.3,2.3,77,0.00,CLR,,0.00,WeatherDisplay:10.37,2013-01-13 13:20:00,
2013-01-13 07:25:00,1.3,-4.2,30.20,WNW,300,3.5,3.5,77,0.00,CLR,,0.00,WeatherDisplay:10.37,2013-01-13 13:25:00,
2013-01-13 07:30:00,1.2,-4.3,30.20,NW,310,3.5,3.5,77,0.00,CLR,,0.00,WeatherDisplay:10.37,2013-01-13 13:30:00,
2013-01-13 07:35:00,1.1,-4.4,30.20,NW,317,0.0,0.0,77,0.00,CLR,,0.00,WeatherDisplay:10.37,2013-01-13 13:35:00,
2013-01-13 07:40:00,1.1,-4.4,30.20,NW,317,0.0,0.0,77,0.00,CLR,,0.00,WeatherDisplay:10.37,2013-01-13 13:40:00,
2013-01-13 07:45:00,1.0,-4.5,30.20,NW,317,0.0,0.0,77,0.00,CLR,,0.00,WeatherDisplay:10.37,2013-01-13 13:45:00,
2013-01-13 07:50:00,1.0,-4.5,30.20,NW,317,0.0,0.0,77,0.00,CLR,,0.00,WeatherDisplay:10.37,2013-01-13 13:50:00,
2013-01-13 07:55:00,0.9,-4.6,30.20,NW,317,0.0,0.0,77,0.00,CLR,,0.00,WeatherDisplay:10.37,2013-01-13 13:55:00,
2013-01-13 08:00:00,0.8,-4.7,30.21,WNW,298,3.5,3.5,77,0.00,CLR,,0.00,WeatherDisplay:10.37,2013-01-13 14:00:00,
2013-01-13 08:05:00,0.7,-4.8,30.22,WNW,300,3.5,3.5,77,0.00,CLR,,0.00,WeatherDisplay:10.37,2013-01-13 14:05:00,
2013-01-13 08:10:00,0.7,-4.8,30.22,WNW,300,0.0,0.0,77,0.00,CLR,,0.00,WeatherDisplay:10.37,2013-01-13 14:10:00,
2013-01-13 08:15:00,0.7,-4.8,30.22,WNW,300,0.0,0.0,77,0.00,CLR,,0.00,WeatherDisplay:10.37,2013-01-13 14:15:00,
2013-01-13 08:20:00,0.7,-4.8,30.22,WNW,300,2.3,2.3,77,0.00,CLR,,0.00,WeatherDisplay:10.37,2013-01-13 14:20:00,
2013-01-13 08:25:00,0.8,-4.7,30.22,NW,317,3.5,3.5,77,0.00,CLR,,0.00,WeatherDisplay:10.37,2013-01-13 14:25:00,
2013-01-13 08:30:00,0.8,-4.7,30.22,NW,316,0.0,0.0,77,0.00,CLR,,0.00,WeatherDisplay:10.37,2013-01-13 14:30:00,
2013-01-13 08:35:00,0.9,-4.4,30.22,NW,317,0.0,0.0,78,0.00,CLR,,0.00,WeatherDisplay:10.37,2013-01-13 14:35:00,
2013-01-13 08:40:00,1.1,-4.4,30.23,WNW,298,2.3,0.0,77,0.00,CLR,,0.00,WeatherDisplay:10.37,2013-01-13 14:40:00,
2013-01-13 08:45:00,1.2,-4.3,30.23,WNW,298,2.0,2.0,77,0.00,CLR,,0.00,WeatherDisplay:10.37,2013-01-13 14:45:00,
2013-01-13 08:50:00,1.4,-4.1,30.23,NW,318,3.5,3.5,77,0.00,CLR,,0.00,WeatherDisplay:10.37,2013-01-13 14:50:00,
2013-01-13 08:55:00,1.5,-4.0,30.23,WNW,303,5.0,5.0,77,0.00,CLR,,0.00,WeatherDisplay:10.37,2013-01-13 14:55:00,
2013-01-13 09:00:00,1.7,-3.8,30.23,NW,317,3.5,3.5,77,0.00,CLR,,0.00,WeatherDisplay:10.37,2013-01-13 15:00:00,
2013-01-13 09:05:00,1.9,-3.7,30.24,NW,308,3.5,3.5,77,0.00,CLR,,0.00,WeatherDisplay:10.37,2013-01-13 15:05:00,
2013-01-13 09:10:00,2.0,-3.6,30.24,WNW,288,3.5,3.5,77,0.00,CLR,,0.00,WeatherDisplay:10.37,2013-01-13 15:10:00,
2013-01-13 09:15:00,1.8,-4.0,30.24,NW,316,3.5,3.5,76,0.00,CLR,,0.00,WeatherDisplay:10.37,2013-01-13 15:15:00,
2013-01-13 09:20:00,1.7,-4.1,30.25,NW,325,3.5,3.5,76,0.00,CLR,,0.00,WeatherDisplay:10.37,2013-01-13 15:20:00,
2013-01-13 09:25:00,1.7,-4.1,30.25,NW,315,2.3,2.3,76,0.00,CLR,,0.00,WeatherDisplay:10.37,2013-01-13 15:25:00,
2013-01-13 09:30:00,1.8,-4.0,30.25,NW,310,3.5,3.5,76,0.00,CLR,,0.00,WeatherDisplay:10.37,2013-01-13 15:30:00,
2013-01-13 09:35:00,1.9,-3.7,30.25,WNW,303,2.3,2.3,77,0.00,CLR,,0.00,WeatherDisplay:10.37,2013-01-13 15:35:00,
2013-01-13 09:40:00,2.0,-3.8,30.24,NW,324,3.5,3.5,76,0.00,CLR,,0.00,WeatherDisplay:10.37,2013-01-13 15:40:00,
2013-01-13 09:45:00,2.1,-3.5,30.24,NW,321,0.0,0.0,77,0.00,CLR,,0.00,WeatherDisplay:10.37,2013-01-13 15:45:00,
2013-01-13 09:50:00,2.0,-3.8,30.24,NW,307,3.5,3.5,76,0.00,CLR,,0.00,WeatherDisplay:10.37,2013-01-13 15:50:00,
2013-01-13 09:55:00,2.0,-3.6,30.24,NW,306,3.5,3.5,77,0.00,CLR,,0.00,WeatherDisplay:10.37,2013-01-13 15:55:00,
2013-01-13 10:00:00,2.2,-3.4,30.24,WNW,303,3.5,3.5,77,0.00,CLR,,0.00,WeatherDisplay:10.37,2013-01-13 16:00:00,
2013-01-13 10:05:00,2.3,-3.3,30.24,NNW,339,3.5,3.5,77,0.00,CLR,,0.00,WeatherDisplay:10.37,2013-01-13 16:05:00,
2013-01-13 10:10:00,2.5,-3.1,30.23,NW,318,3.5,3.5,77,0.00,CLR,,0.00,WeatherDisplay:10.37,2013-01-13 16:10:00,
2013-01-13 10:15:00,2.5,-3.1,30.23,WNW,292,6.9,6.9,77,0.00,CLR,,0.00,WeatherDisplay:10.37,2013-01-13 16:15:00,
2013-01-13 10:20:00,2.7,-2.9,30.23,WNW,300,3.5,3.5,77,0.00,CLR,,0.00,WeatherDisplay:10.37,2013-01-13 16:20:00,
2013-01-13 10:25:00,2.8,-2.5,30.22,West,277,0.0,0.0,78,0.00,CLR,,0.00,WeatherDisplay:10.37,2013-01-13 16:25:00,
2013-01-13 10:30:00,3.0,-2.3,30.22,NW,319,6.9,6.9,78,0.00,CLR,,0.00,WeatherDisplay:10.37,2013-01-13 16:30:00,
2013-01-13 10:35:00,3.0,-2.3,30.22,NW,309,3.5,3.5,78,0.00,CLR,,0.00,WeatherDisplay:10.37,2013-01-13 16:35:00,
2013-01-13 10:40:00,3.3,-2.0,30.22,WNW,302,6.9,6.9,78,0.00,CLR,,0.00,WeatherDisplay:10.37,2013-01-13 16:40:00,
2013-01-13 10:45:00,3.4,-1.9,30.22,West,280,2.3,2.3,78,0.00,CLR,,0.00,WeatherDisplay:10.37,2013-01-13 16:45:00,
2013-01-13 10:50:00,3.8,-1.5,30.21,NW,317,3.5,3.5,78,0.00,CLR,,0.00,WeatherDisplay:10.37,2013-01-13 16:50:00,
2013-01-13 10:55:00,4.1,-1.2,30.21,NW,308,5.8,5.8,78,0.00,CLR,,0.00,WeatherDisplay:10.37,2013-01-13 16:55:00,
2013-01-13 11:00:00,3.9,-1.7,30.20,NW,308,3.5,3.5,77,0.00,CLR,,0.00,WeatherDisplay:10.37,2013-01-13 17:00:00,
2013-01-13 11:05:00,3.9,-1.7,30.20,NNW,327,3.5,3.5,77,0.00,CLR,,0.00,WeatherDisplay:10.37,2013-01-13 17:05:00,
2013-01-13 11:10:00,4.2,-1.1,30.20,WSW,256,3.5,3.5,78,0.00,CLR,,0.00,WeatherDisplay:10.37,2013-01-13 17:10:00,
2013-01-13 11:15:00,4.6,-0.8,30.20,WNW,303,4.6,4.6,78,0.00,CLR,,0.00,WeatherDisplay:10.37,2013-01-13 17:15:00,
2013-01-13 11:20:00,4.4,-1.5,30.19,West,274,3.5,3.5,76,0.00,CLR,,0.00,WeatherDisplay:10.37,2013-01-13 17:20:00,
2013-01-13 11:25:00,4.8,-0.8,30.19,NW,323,3.5,3.5,77,0.00,CLR,,0.00,WeatherDisplay:10.37,2013-01-13 17:25:00,
2013-01-13 11:30:00,5.0,-0.6,30.19,NW,321,3.5,3.5,77,0.00,CLR,,0.00,WeatherDisplay:10.37,2013-01-13 17:30:00,
2013-01-13 11:35:00,5.2,-0.7,30.19,NW,323,4.6,4.6,76,0.00,CLR,,0.00,WeatherDisplay:10.37,2013-01-13 17:35:00,
2013-01-13 11:40:00,5.3,-0.6,30.19,NW,315,3.5,3.5,76,0.00,CLR,,0.00,WeatherDisplay:10.37,2013-01-13 17:40:00,
2013-01-13 11:45:00,5.2,-0.7,30.18,NW,313,3.5,3.5,76,0.00,CLR,,0.00,WeatherDisplay:10.37,2013-01-13 17:45:00,
2013-01-13 11:50:00,5.4,-0.5,30.19,West,276,4.6,4.6,76,0.00,CLR,,0.00,WeatherDisplay:10.37,2013-01-13 17:50:00,
2013-01-13 11:55:00,5.6,-0.3,30.18,West,270,3.5,3.5,76,0.00,CLR,,0.00,WeatherDisplay:10.37,2013-01-13 17:55:00,
2013-01-13 12:00:00,5.7,-0.2,30.18,NW,311,3.5,3.5,76,0.00,CLR,,0.00,WeatherDisplay:10.37,2013-01-13 18:00:00,
2013-01-13 12:05:00,5.5,-0.4,30.18,WNW,300,10.4,10.4,76,0.00,CLR,,0.00,WeatherDisplay:10.37,2013-01-13 18:05:00,
2013-01-13 12:10:00,5.6,-0.1,30.17,NW,311,4.6,4.6,77,0.00,CLR,,0.00,WeatherDisplay:10.37,2013-01-13 18:10:00,
2013-01-13 12:15:00,5.7,0.0,30.18,NW,323,5.8,5.8,77,0.00,CLR,,0.00,WeatherDisplay:10.37,2013-01-13 18:15:00,
2013-01-13 12:20:00,5.6,-0.3,30.18,WNW,299,4.6,4.6,76,0.00,CLR,,0.00,WeatherDisplay:10.37,2013-01-13 18:20:00,
2013-01-13 12:25:00,5.8,-0.1,30.18,WNW,292,3.5,3.5,76,0.00,CLR,,0.00,WeatherDisplay:10.37,2013-01-13 18:25:00,
2013-01-13 12:30:00,6.0,0.1,30.17,WNW,299,5.8,5.8,76,0.00,CLR,,0.00,WeatherDisplay:10.37,2013-01-13 18:30:00,
2013-01-13 12:35:00,6.2,0.3,30.17,West,276,8.1,8.1,76,0.00,CLR,,0.00,WeatherDisplay:10.37,2013-01-13 18:35:00,
2013-01-13 12:40:00,6.9,1.2,30.17,NW,326,5.8,5.8,77,0.00,CLR,,0.00,WeatherDisplay:10.37,2013-01-13 18:40:00,
2013-01-13 12:45:00,7.0,0.7,30.18,West,268,6.9,6.9,75,0.00,CLR,,0.00,WeatherDisplay:10.37,2013-01-13 18:45:00,
2013-01-13 12:50:00,7.0,0.5,30.18,WNW,303,5.8,5.8,74,0.00,CLR,,0.00,WeatherDisplay:10.37,2013-01-13 18:50:00,
2013-01-13 12:55:00,7.3,0.7,30.18,NW,323,4.6,4.6,74,0.00,CLR,,0.00,WeatherDisplay:10.37,2013-01-13 18:55:00,
2013-01-13 13:00:00,7.6,1.0,30.17,NNW,327,4.6,4.6,74,0.00,CLR,,0.00,WeatherDisplay:10.37,2013-01-13 19:00:00,
2013-01-13 13:05:00,7.5,0.7,30.18,WSW,246,5.8,5.8,73,0.00,CLR,,0.00,WeatherDisplay:10.37,2013-01-13 19:05:00,
2013-01-13 13:10:00,7.9,3.5,30.18,NW,316,2.3,2.3,82,0.00,CLR,,0.00,WeatherDisplay:10.37,2013-01-13 19:10:00,
2013-01-13 13:15:00,8.1,1.2,30.18,West,274,3.5,3.5,73,0.00,CLR,,0.00,WeatherDisplay:10.37,2013-01-13 19:15:00,
2013-01-13 13:20:00,8.1,1.2,30.18,WNW,300,9.2,9.2,73,0.00,CLR,,0.00,WeatherDisplay:10.37,2013-01-13 19:20:00,
2013-01-13 13:25:00,8.2,1.0,30.18,WNW,296,9.2,9.2,72,0.00,CLR,,0.00,WeatherDisplay:10.37,2013-01-13 19:25:00,
2013-01-13 13:30:00,7.6,0.5,30.18,NW,317,6.9,6.9,72,0.00,CLR,,0.00,WeatherDisplay:10.37,2013-01-13 19:30:00,
2013-01-13 13:35:00,7.3,0.5,30.18,WNW,300,5.8,5.8,73,0.00,CLR,,0.00,WeatherDisplay:10.37,2013-01-13 19:35:00,
2013-01-13 13:40:00,7.2,0.7,30.18,NW,319,10.4,10.4,74,0.00,CLR,,0.00,WeatherDisplay:10.37,2013-01-13 19:40:00,
2013-01-13 13:45:00,7.3,0.7,30.18,NW,318,5.8,5.8,74,0.00,CLR,,0.00,WeatherDisplay:10.37,2013-01-13 19:45:00,
2013-01-13 13:50:00,7.4,0.8,30.19,NW,314,4.6,4.6,74,0.00,CLR,,0.00,WeatherDisplay:10.37,2013-01-13 19:50:00,
2013-01-13 13:56:00,7.2,0.7,30.19,NW,316,3.5,3.5,74,0.00,CLR,,0.00,WeatherDisplay:10.37,2013-01-13 19:56:00,
2013-01-13 14:01:00,7.0,0.5,30.19,NW,325,3.5,3.5,74,0.00,CLR,,0.00,WeatherDisplay:10.37,2013-01-13 20:01:00,
2013-01-13 14:06:00,7.4,0.8,30.19,WNW,298,6.9,6.9,74,0.00,CLR,,0.00,WeatherDisplay:10.37,2013-01-13 20:06:00,
2013-01-13 14:11:00,7.4,0.3,30.19,West,263,5.8,5.8,72,0.00,CLR,,0.00,WeatherDisplay:10.37,2013-01-13 20:11:00,
2013-01-13 14:16:00,7.8,0.6,30.20,WSW,242,5.8,5.8,72,0.00,CLR,,0.00,WeatherDisplay:10.37,2013-01-13 20:16:00,
2013-01-13 14:21:00,8.2,0.4,30.20,NW,306,11.5,11.5,70,0.00,CLR,,0.00,WeatherDisplay:10.37,2013-01-13 20:21:00,
2013-01-13 14:26:00,7.9,0.1,30.20,WNW,291,10.4,10.4,70,0.00,CLR,,0.00,WeatherDisplay:10.37,2013-01-13 20:26:00,
2013-01-13 14:31:00,7.6,-0.1,30.20,WNW,294,8.1,8.1,70,0.00,CLR,,0.00,WeatherDisplay:10.37,2013-01-13 20:31:00,
2013-01-13 14:36:00,7.4,0.0,30.20,WSW,247,11.5,11.5,71,0.00,CLR,,0.00,WeatherDisplay:10.37,2013-01-13 20:36:00,
2013-01-13 14:41:00,7.6,-0.1,30.20,NW,320,9.2,9.2,70,0.00,CLR,,0.00,WeatherDisplay:10.37,2013-01-13 20:41:00,
2013-01-13 14:46:00,7.5,0.1,30.20,WNW,283,4.6,4.6,71,0.00,CLR,,0.00,WeatherDisplay:10.37,2013-01-13 20:46:00,
2013-01-13 14:51:00,7.5,0.1,30.20,WSW,248,13.8,13.8,71,0.00,CLR,,0.00,WeatherDisplay:10.37,2013-01-13 20:51:00,
2013-01-13 14:56:00,7.5,-0.2,30.21,West,281,10.4,10.4,70,0.00,CLR,,0.00,WeatherDisplay:10.37,2013-01-13 20:56:00,
2013-01-13 15:01:00,7.3,-0.4,30.21,WNW,285,10.4,10.4,70,0.00,CLR,,0.00,WeatherDisplay:10.37,2013-01-13 21:01:00,
2013-01-13 15:06:00,7.6,0.2,30.21,WSW,256,9.2,9.2,71,0.00,CLR,,0.00,WeatherDisplay:10.37,2013-01-13 21:06:00,
2013-01-13 15:11:00,7.6,0.2,30.22,NW,315,11.5,11.5,71,0.00,CLR,,0.00,WeatherDisplay:10.37,2013-01-13 21:11:00,
2013-01-13 15:16:00,7.6,0.2,30.22,WNW,286,1.1,1.1,71,0.00,CLR,,0.00,WeatherDisplay:10.37,2013-01-13 21:16:00,
2013-01-13 15:21:00,7.5,0.1,30.22,NW,323,5.8,5.8,71,0.00,CLR,,0.00,WeatherDisplay:10.37,2013-01-13 21:21:00,
2013-01-13 15:26:00,7.4,0.0,30.22,WNW,296,5.8,5.8,71,0.00,CLR,,0.00,WeatherDisplay:10.37,2013-01-13 21:26:00,
2013-01-13 15:31:00,7.5,0.4,30.22,WNW,290,5.8,5.8,72,0.00,CLR,,0.00,WeatherDisplay:10.37,2013-01-13 21:31:00,
2013-01-13 15:36:00,7.5,0.1,30.22,NW,311,4.6,4.6,71,0.00,CLR,,0.00,WeatherDisplay:10.37,2013-01-13 21:36:00,
2013-01-13 15:41:00,7.6,0.5,30.22,WSW,244,4.6,4.6,72,0.00,CLR,,0.00,WeatherDisplay:10.37,2013-01-13 21:41:00,
2013-01-13 15:46:00,7.8,0.6,30.23,WSW,254,3.5,3.5,72,0.00,CLR,,0.00,WeatherDisplay:10.37,2013-01-13 21:46:00,
2013-01-13 15:51:00,8.0,0.8,30.23,WNW,294,1.1,0.0,72,0.00,CLR,,0.00,WeatherDisplay:10.37,2013-01-13 21:51:00,
2013-01-13 15:56:00,7.9,0.4,30.23,WNW,291,11.5,11.5,71,0.00,CLR,,0.00,WeatherDisplay:10.37,2013-01-13 21:56:00,
2013-01-13 16:01:00,7.6,0.2,30.23,WNW,284,9.2,9.2,71,0.00,CLR,,0.00,WeatherDisplay:10.37,2013-01-13 22:01:00,
2013-01-13 16:06:00,7.4,0.0,30.23,WNW,286,5.8,5.8,71,0.00,CLR,,0.00,WeatherDisplay:10.37,2013-01-13 22:06:00,
2013-01-13 16:11:00,7.2,-0.2,30.23,WNW,287,4.6,4.6,71,0.00,CLR,,0.00,WeatherDisplay:10.37,2013-01-13 22:11:00,
2013-01-13 16:16:00,7.2,-0.2,30.23,NW,319,10.4,10.4,71,0.00,CLR,,0.00,WeatherDisplay:10.37,2013-01-13 22:16:00,
2013-01-13 16:21:00,7.2,-0.2,30.24,WNW,302,3.5,3.5,71,0.00,CLR,,0.00,WeatherDisplay:10.37,2013-01-13 22:21:00,
2013-01-13 16:26:00,7.2,-0.2,30.24,WNW,300,5.8,5.8,71,0.00,CLR,,0.00,WeatherDisplay:10.37,2013-01-13 22:26:00,
2013-01-13 16:31:00,7.2,0.1,30.24,NW,311,4.6,4.6,72,0.00,CLR,,0.00,WeatherDisplay:10.37,2013-01-13 22:31:00,
2013-01-13 16:36:00,7.3,0.2,30.24,WSW,244,0.0,0.0,72,0.00,CLR,,0.00,WeatherDisplay:10.37,2013-01-13 22:36:00,
2013-01-13 16:41:00,7.4,0.3,30.24,WNW,286,6.9,6.9,72,0.00,CLR,,0.00,WeatherDisplay:10.37,2013-01-13 22:41:00,
2013-01-13 16:46:00,7.3,0.2,30.24,WNW,288,11.5,11.5,72,0.00,CLR,,0.00,WeatherDisplay:10.37,2013-01-13 22:46:00,
2013-01-13 16:51:00,7.0,-0.1,30.24,WNW,294,12.0,12.0,72,0.00,CLR,,0.00,WeatherDisplay:10.37,2013-01-13 22:51:00,
2013-01-13 16:56:00,6.9,0.1,30.25,West,272,11.5,11.5,73,0.00,CLR,,0.00,WeatherDisplay:10.37,2013-01-13 22:56:00,
2013-01-13 17:01:00,6.7,-0.4,30.25,WNW,287,3.5,0.0,72,0.00,CLR,,0.00,WeatherDisplay:10.37,2013-01-13 23:01:00,
2013-01-13 17:06:00,6.7,-0.1,30.25,WSW,253,9.0,9.0,73,0.00,CLR,,0.00,WeatherDisplay:10.37,2013-01-13 23:06:00,
2013-01-13 17:11:00,6.5,-0.3,30.25,WNW,295,5.8,5.8,73,0.00,CLR,,0.00,WeatherDisplay:10.37,2013-01-13 23:11:00,
2013-01-13 17:16:00,6.4,-0.4,30.25,WNW,300,3.5,3.5,73,0.00,CLR,,0.00,WeatherDisplay:10.37,2013-01-13 23:16:00,
2013-01-13 17:21:00,6.4,-0.1,30.26,WNW,286,6.9,6.9,74,0.00,CLR,,0.00,WeatherDisplay:10.37,2013-01-13 23:21:00,
2013-01-13 17:26:00,6.3,-0.2,30.26,WNW,290,3.5,3.5,74,0.00,CLR,,0.00,WeatherDisplay:10.37,2013-01-13 23:26:00,
2013-01-13 17:31:00,6.1,-0.4,30.26,WNW,302,11.5,11.5,74,0.00,CLR,,0.00,WeatherDisplay:10.37,2013-01-13 23:31:00,
2013-01-13 17:36:00,6.0,-0.5,30.26,WNW,283,6.9,6.9,74,0.00,CLR,,0.00,WeatherDisplay:10.37,2013-01-13 23:36:00,
2013-01-13 17:41:00,5.9,-0.6,30.26,WNW,291,3.5,3.5,74,0.00,CLR,,0.00,WeatherDisplay:10.37,2013-01-13 23:41:00,
2013-01-13 17:46:00,5.7,-0.5,30.26,WNW,289,10.4,10.4,75,0.00,CLR,,0.00,WeatherDisplay:10.37,2013-01-13 23:46:00,
2013-01-13 17:51:00,5.4,-0.8,30.26,WNW,286,5.8,5.8,75,0.00,CLR,,0.00,WeatherDisplay:10.37,2013-01-13 23:51:00,
2013-01-13 17:56:00,5.2,-1.0,30.26,West,263,10.4,10.4,75,0.00,CLR,,0.00,WeatherDisplay:10.37,2013-01-13 23:56:00,
2013-01-13 18:01:00,5.0,-0.9,30.27,WNW,293,4.6,4.6,76,0.00,CLR,,0.00,WeatherDisplay:10.37,2013-01-14 00:01:00,
2013-01-13 18:06:00,4.9,-1.0,30.27,West,271,4.6,4.6,76,0.00,CLR,,0.00,WeatherDisplay:10.37,2013-01-14 00:06:00,
2013-01-13 18:11:00,4.7,-1.2,30.27,West,261,11.5,11.5,76,0.00,CLR,,0.00,WeatherDisplay:10.37,2013-01-14 00:11:00,
2013-01-13 18:16:00,4.6,-1.3,30.27,WSW,242,4.6,4.6,76,0.00,CLR,,0.00,WeatherDisplay:10.37,2013-01-14 00:16:00,
2013-01-13 18:21:00,4.5,-1.4,30.27,WNW,297,4.6,4.6,76,0.00,CLR,,0.00,WeatherDisplay:10.37,2013-01-14 00:21:00,
2013-01-13 18:26:00,4.5,-1.4,30.27,WNW,289,3.5,3.5,76,0.00,CLR,,0.00,WeatherDisplay:10.37,2013-01-14 00:26:00,
2013-01-13 18:31:00,4.4,-1.5,30.27,WSW,258,4.6,4.6,76,0.00,CLR,,0.00,WeatherDisplay:10.37,2013-01-14 00:31:00,
2013-01-13 18:36:00,4.3,-1.6,30.28,WNW,289,4.6,4.6,76,0.00,CLR,,0.00,WeatherDisplay:10.37,2013-01-14 00:36:00,
2013-01-13 18:41:00,4.2,-1.7,30.28,WNW,288,3.5,3.5,76,0.00,CLR,,0.00,WeatherDisplay:10.37,2013-01-14 00:41:00,
2013-01-13 18:46:00,4.1,-1.8,30.28,WSW,248,3.5,3.5,76,0.00,CLR,,0.00,WeatherDisplay:10.37,2013-01-14 00:46:00,
2013-01-13 18:51:00,4.1,-1.5,30.28,WNW,288,3.5,3.5,77,0.00,CLR,,0.00,WeatherDisplay:10.37,2013-01-14 00:51:00,
2013-01-13 18:56:00,4.0,-1.6,30.28,West,275,3.5,3.5,77,0.00,CLR,,0.00,WeatherDisplay:10.37,2013-01-14 00:56:00,
2013-01-13 19:01:00,3.9,-1.7,30.28,West,268,3.5,3.5,77,0.00,CLR,,0.00,WeatherDisplay:10.37,2013-01-14 01:01:00,
2013-01-13 19:06:00,3.8,-1.8,30.29,WSW,239,15.0,15.0,77,0.00,CLR,,0.00,WeatherDisplay:10.37,2013-01-14 01:06:00,
2013-01-13 19:11:00,3.8,-1.8,30.29,West,261,10.4,10.4,77,0.00,CLR,,0.00,WeatherDisplay:10.37,2013-01-14 01:11:00,
2013-01-13 19:16:00,3.8,-1.8,30.29,WSW,257,3.5,3.5,77,0.00,CLR,,0.00,WeatherDisplay:10.37,2013-01-14 01:16:00,
2013-01-13 19:21:00,3.8,-1.8,30.29,WSW,240,8.1,8.1,77,0.00,CLR,,0.00,WeatherDisplay:10.37,2013-01-14 01:21:00,
2013-01-13 19:26:00,3.8,-1.8,30.29,WSW,246,6.9,6.9,77,0.00,CLR,,0.00,WeatherDisplay:10.37,2013-01-14 01:26:00,
2013-01-13 19:31:00,3.8,-1.8,30.29,West,267,3.5,3.5,77,0.00,CLR,,0.00,WeatherDisplay:10.37,2013-01-14 01:31:00,
2013-01-13 19:36:00,3.8,-1.8,30.29,West,259,11.5,11.5,77,0.00,CLR,,0.00,WeatherDisplay:10.37,2013-01-14 01:36:00,
2013-01-13 19:41:00,3.8,-1.8,30.29,West,279,10.4,10.4,77,0.00,CLR,,0.00,WeatherDisplay:10.37,2013-01-14 01:41:00,
2013-01-13 19:46:00,3.9,-1.7,30.29,WNW,295,11.5,11.5,77,0.00,CLR,,0.00,WeatherDisplay:10.37,2013-01-14 01:46:00,
2013-01-13 19:51:00,3.9,-1.7,30.30,WNW,295,4.6,4.6,77,0.00,CLR,,0.00,WeatherDisplay:10.37,2013-01-14 01:51:00,
2013-01-13 19:56:00,3.9,-1.7,30.30,West,261,3.0,3.0,77,0.00,CLR,,0.00,WeatherDisplay:10.37,2013-01-14 01:56:00,
2013-01-13 20:01:00,4.0,-1.6,30.30,West,264,6.9,6.9,77,0.00,CLR,,0.00,WeatherDisplay:10.37,2013-01-14 02:01:00,
2013-01-13 20:06:00,4.0,-1.6,30.30,West,264,0.0,0.0,77,0.00,CLR,,0.00,WeatherDisplay:10.37,2013-01-14 02:06:00,
2013-01-13 20:11:00,3.9,-1.7,30.30,WSW,253,2.3,2.3,77,0.00,CLR,,0.00,WeatherDisplay:10.37,2013-01-14 02:11:00,
2013-01-13 20:16:00,3.9,-1.7,30.30,WSW,244,2.3,0.0,77,0.00,CLR,,0.00,WeatherDisplay:10.37,2013-01-14 02:16:00,
2013-01-13 20:22:00,3.9,-1.4,30.30,West,260,3.5,3.5,78,0.00,CLR,,0.00,WeatherDisplay:10.37,2013-01-14 02:22:00,
2013-01-13 20:27:00,4.0,-1.6,30.30,WSW,258,3.5,3.5,77,0.00,CLR,,0.00,WeatherDisplay:10.37,2013-01-14 02:27:00,
2013-01-13 20:32:00,4.0,-1.6,30.30,WNW,287,4.6,4.6,77,0.00,CLR,,0.00,WeatherDisplay:10.37,2013-01-14 02:32:00,
2013-01-13 20:37:00,4.0,-1.6,30.30,WSW,253,6.0,6.0,77,0.00,CLR,,0.00,WeatherDisplay:10.37,2013-01-14 02:37:00,
2013-01-13 20:42:00,4.0,-1.3,30.30,WNW,294,1.1,1.1,78,0.00,CLR,,0.00,WeatherDisplay:10.37,2013-01-14 02:42:00,
2013-01-13 20:47:00,4.1,-1.2,30.30,WSW,257,5.0,5.0,78,0.00,CLR,,0.00,WeatherDisplay:10.37,2013-01-14 02:47:00,
2013-01-13 20:52:00,4.1,-1.2,30.30,WNW,302,2.3,2.3,78,0.00,CLR,,0.00,WeatherDisplay:10.37,2013-01-14 02:52:00,
2013-01-13 20:57:00,4.1,-1.2,30.30,West,273,0.0,0.9,78,0.00,CLR,,0.00,WeatherDisplay:10.37,2013-01-14 02:57:00,
2013-01-13 21:02:00,4.1,-1.2,30.30,West,269,0.0,0.6,78,0.00,CLR,,0.00,WeatherDisplay:10.37,2013-01-14 03:02:00,
2013-01-13 21:07:00,4.2,-1.1,30.30,West,273,3.5,0.0,78,0.00,CLR,,0.00,WeatherDisplay:10.37,2013-01-14 03:07:00,
2013-01-13 21:12:00,4.2,-1.1,30.30,WSW,246,0.0,0.6,78,0.00,CLR,,0.00,WeatherDisplay:10.37,2013-01-14 03:12:00,
2013-01-13 21:17:00,4.2,-1.1,30.31,WSW,238,0.0,0.0,78,0.00,CLR,,0.00,WeatherDisplay:10.37,2013-01-14 03:17:00,
2013-01-13 21:22:00,4.3,-1.0,30.31,WSW,257,2.3,2.3,78,0.00,CLR,,0.00,WeatherDisplay:10.37,2013-01-14 03:22:00,
2013-01-13 21:27:00,4.4,-0.9,30.31,WSW,240,3.5,3.5,78,0.00,CLR,,0.00,WeatherDisplay:10.37,2013-01-14 03:27:00,
2013-01-13 21:32:00,4.5,-0.8,30.31,WNW,287,1.1,1.1,78,0.00,CLR,,0.00,WeatherDisplay:10.37,2013-01-14 03:32:00,
2013-01-13 21:37:00,4.5,-0.8,30.31,West,260,0.0,0.1,78,0.00,CLR,,0.00,WeatherDisplay:10.37,2013-01-14 03:37:00,
2013-01-13 21:42:00,4.4,-0.9,30.31,WSW,246,0.0,0.0,78,0.00,CLR,,0.00,WeatherDisplay:10.37,2013-01-14 03:42:00,
2013-01-13 21:47:00,4.3,-1.0,30.31,WSW,246,0.0,0.0,78,0.00,CLR,,0.00,WeatherDisplay:10.37,2013-01-14 03:47:00,
2013-01-13 21:52:00,4.2,-1.1,30.31,WSW,246,0.0,0.0,78,0.00,CLR,,0.00,WeatherDisplay:10.37,2013-01-14 03:52:00,
2013-01-13 21:57:00,4.0,-1.3,30.32,WSW,246,0.0,0.0,78,0.00,CLR,,0.00,WeatherDisplay:10.37,2013-01-14 03:57:00,
2013-01-13 22:02:00,3.8,-1.5,30.32,WSW,246,0.0,0.0,78,0.00,CLR,,0.00,WeatherDisplay:10.37,2013-01-14 04:02:00,
2013-01-13 22:07:00,3.7,-1.6,30.32,WSW,246,0.0,0.0,78,0.00,CLR,,0.00,WeatherDisplay:10.37,2013-01-14 04:07:00,
2013-01-13 22:12:00,3.7,-1.4,30.32,WSW,246,0.0,0.0,79,0.00,CLR,,0.00,WeatherDisplay:10.37,2013-01-14 04:12:00,
2013-01-13 22:17:00,3.7,-1.4,30.32,WSW,246,0.0,0.0,79,0.00,CLR,,0.00,WeatherDisplay:10.37,2013-01-14 04:17:00,
2013-01-13 22:22:00,3.8,-1.3,30.32,WSW,246,3.0,0.0,79,0.00,CLR,,0.00,WeatherDisplay:10.37,2013-01-14 04:22:00,
2013-01-13 22:27:00,3.8,-1.3,30.32,WSW,246,0.0,0.0,79,0.00,CLR,,0.00,WeatherDisplay:10.37,2013-01-14 04:27:00,
2013-01-13 22:32:00,3.8,-1.3,30.32,WSW,246,0.0,0.0,79,0.00,CLR,,0.00,WeatherDisplay:10.37,2013-01-14 04:32:00,
2013-01-13 22:37:00,3.8,-1.3,30.32,WSW,246,0.0,0.0,79,0.00,CLR,,0.00,WeatherDisplay:10.37,2013-01-14 04:37:00,
2013-01-13 22:42:00,3.8,-1.3,30.33,WSW,246,0.0,0.0,79,0.00,CLR,,0.00,WeatherDisplay:10.37,2013-01-14 04:42:00,
2013-01-13 22:47:00,3.7,-1.4,30.33,WSW,246,0.0,0.0,79,0.00,CLR,,0.00,WeatherDisplay:10.37,2013-01-14 04:47:00,
2013-01-13 22:52:00,3.7,-1.4,30.33,WSW,245,0.0,0.0,79,0.00,CLR,,0.00,WeatherDisplay:10.37,2013-01-14 04:52:00,
2013-01-13 22:57:00,3.8,-1.3,30.32,WSW,244,3.5,3.5,79,0.00,CLR,,0.00,WeatherDisplay:10.37,2013-01-14 04:57:00,
2013-01-13 23:02:00,3.9,-1.2,30.33,WSW,244,0.0,0.0,79,0.00,CLR,,0.00,WeatherDisplay:10.37,2013-01-14 05:02:00,
2013-01-13 23:03:00,3.9,-1.2,30.33,WSW,244,0.0,0.0,79,0.00,CLR,,0.00,WeatherDisplay:10.37,2013-01-14 05:03:00,
2013-01-13 23:09:00,3.9,-1.2,30.33,WSW,244,0.0,0.0,79,0.00,CLR,,0.00,WeatherDisplay:10.37,2013-01-14 05:09:00,
2013-01-13 23:14:00,4.0,-1.1,30.33,SW,234,3.5,3.5,79,0.00,CLR,,0.00,WeatherDisplay:10.37,2013-01-14 05:14:00,
2013-01-13 23:19:00,4.1,-1.0,30.33,SW,226,3.0,0.0,79,0.00,CLR,,0.00,WeatherDisplay:10.37,2013-01-14 05:19:00,
2013-01-13 23:24:00,4.2,-0.9,30.33,SW,225,3.5,0.0,79,0.00,CLR,,0.00,WeatherDisplay:10.37,2013-01-14 05:24:00,
2013-01-13 23:29:00,4.2,-1.1,30.33,SW,225,0.0,0.0,78,0.00,CLR,,0.00,WeatherDisplay:10.37,2013-01-14 05:29:00,
2013-01-13 23:34:00,4.2,-0.9,30.33,SW,225,3.5,3.5,79,0.00,CLR,,0.00,WeatherDisplay:10.37,2013-01-14 05:34:00,
2013-01-13 23:39:00,4.2,-0.9,30.33,SW,225,0.0,0.0,79,0.00,CLR,,0.00,WeatherDisplay:10.37,2013-01-14 05:39:00,
2013-01-13 23:44:00,4.1,-1.0,30.33,SW,225,0.0,0.0,79,0.00,CLR,,0.00,WeatherDisplay:10.37,2013-01-14 05:44:00,
2013-01-13 23:49:00,4.0,-1.1,30.34,SW,225,0.0,0.0,79,0.00,CLR,,0.00,WeatherDisplay:10.37,2013-01-14 05:49:00,
2013-01-13 23:54:00,4.1,-1.0,30.34,SW,225,3.5,3.5,79,0.00,CLR,,0.00,WeatherDisplay:10.37,2013-01-14 05:54:00,
2013-01-13 23:59:00,4.2,-0.9,30.34,SW,219,3.5,3.5,79,0.00,CLR,,0.00,WeatherDisplay:10.37,2013-01-14 05:59:00,